#timestamp,LO_Frequency,Hit,StdDev 
1456167615.4,286046920.7,N
1456167635.2,286046921.5,N
1456167655.0,286046923.4,N
1456167655.9,286046935.1,N
1456167675.8,286046932.1,N
1456167695.6,286046929.1,N
1456167715.5,286046930.8,N
1456167735.3,286046933.8,N
1456167755.1,286046932.5,N
1456167775.9,286046756.2,N
1456167795.7,286046706.7,N
1456167815.5,286045819.5,Y
1456167835.4,286045913.4,P
1456167855.2,286045918.0,N
1456167875.1,286045917.4,N
1456167876.0,286045917.4,N
1456167895.8,286045659.8,Y
1456167915.6,286046352.9,P
1456167935.5,286046881.3,N
1456167955.3,286046244.4,N
1456167975.1,286047982.2,Y
1456167995.9,286048588.9,P
1456168015.7,286048593.2,N
1456168035.6,286047427.6,N
1456168055.4,286047429.2,N
1456168075.2,286048595.2,N
1456168095.1,286047432.9,N
1456168096.0,286047432.9,N
1456168115.8,286047433.4,N
1456168135.6,286047919.9,N
1456168155.5,286047437.3,N
1456168175.3,286047438.5,N
1456168195.2,286047442.4,N
1456168215.9,286047444.0,N
1456168235.7,286047444.8,N
1456168255.6,286047447.0,N
1456168275.4,286047448.9,N
1456168295.2,286047451.9,N
1456168315.1,286047450.9,N
1456168316.0,286047450.9,N
1456168335.8,286047455.3,N
1456168355.7,286047934.7,N
1456168375.5,286047458.5,N
1456168395.3,286047459.6,N
1456168415.2,286047461.7,N
1456168435.0,286047465.2,N
1456168435.9,286047465.2,N
1456168455.7,286047466.3,N
1456168475.6,286047468.0,N
1456168495.4,286047467.1,N
1456168515.3,286047470.8,N
1456168535.1,286047472.2,N
1456168536.0,286047472.2,N
1456168555.8,286048602.2,Y
1456168575.7,286046973.8,P
1456168595.5,286047585.0,N
1456168615.3,286046959.4,N
1456168635.2,286047107.4,N
1456168655.0,286047012.9,N
1456168655.9,286047012.9,N
1456168675.8,286046742.9,N
1456168695.6,286046421.7,N
1456168715.4,286046418.9,N
1456168735.3,286045889.6,Y
1456168755.1,286046998.5,P
1456168775.9,286047000.5,N
1456168795.7,286048153.3,P
1456168815.5,286047005.4,N
1456168835.4,286047007.4,N
1456168855.2,286047903.3,N
1456168875.0,286047009.4,N
1456168875.9,286047009.4,N
1456168895.8,286047069.4,N
1456168915.6,286047154.7,N
1456168935.5,286047348.8,N
1456168955.3,286047448.1,N
1456168975.1,286047379.3,N
1456168995.9,286048167.3,Y
1456169015.7,286047729.9,P
1456169035.5,286047923.6,P
1456169055.4,286047923.3,P
1456169075.2,286047924.7,Y
1456169095.1,286046409.2,P
1456169096.0,286046409.2,N
1456169115.8,286046084.3,N
1456169135.6,286046085.9,N
1456169155.5,286047220.9,N
1456169175.3,286046088.8,N
1456169195.1,286046092.0,N
1456169215.9,286046091.4,N
1456169235.7,286046095.4,N
1456169255.6,286046098.7,N
1456169275.4,286046099.7,N
1456169295.2,286046103.6,N
1456169315.1,286046106.5,N
1456169316.0,286046106.5,N
1456169335.8,286046107.3,N
1456169355.7,286046108.5,N
1456169375.5,286046623.4,N
1456169395.3,286046115.8,N
1456169415.2,286047241.1,N
1456169435.0,286047240.8,N
1456169435.9,286047240.8,N
1456169455.7,286046699.9,N
1456169475.6,286047239.9,N
1456169495.4,286047243.2,N
1456169515.3,286047245.7,N
1456169535.1,286047245.7,N
1456169555.8,286047246.4,N
1456169575.7,286047249.1,N
1456169595.5,286047375.8,N
1456169615.4,286047249.9,N
1456169635.2,286047252.2,N
1456169655.0,286047254.0,N
1456169655.9,286047254.0,N
1456169675.8,286047639.2,N
1456169695.6,286047254.3,N
1456169715.4,286047256.6,N
1456169735.3,286046446.1,N
1456169755.1,286046485.5,N
1456169775.9,286046865.7,N
1456169795.7,286046455.7,N
1456169815.5,286046458.2,N
1456169835.4,286047261.0,N
1456169855.2,286045862.4,N
1456169875.0,286045864.5,N
1456169875.9,286045864.5,N
1456169895.8,286047351.3,N
1456169915.6,286047262.6,N
1456169935.4,286045870.0,N
1456169955.3,286045868.8,N
1456169975.1,286045870.8,N
1456169995.9,286045612.1,N
1456170015.7,286045874.2,N
1456170035.5,286045877.6,N
1456170055.4,286045876.7,N
1456170075.2,286045879.5,N
1456170095.0,286045878.5,N
1456170096.0,286045878.5,N
1456170115.8,286045882.6,N
1456170135.6,286045883.8,N
1456170155.5,286045884.6,N
1456170175.3,286045886.7,N
1456170195.1,286045889.1,N
1456170215.9,286045887.8,N
1456170235.7,286045891.7,N
1456170255.6,286045894.0,N
1456170275.4,286045894.7,N
1456170295.2,286045224.6,Y
1456170315.1,286046994.4,P
1456170316.0,286046994.4,N
1456170335.8,286048773.6,P
1456170355.7,286048771.4,N
1456170375.5,286048771.7,N
1456170395.3,286048217.6,N
1456170415.2,286048771.5,N
1456170435.0,286048773.4,N
1456170435.9,286048773.4,N
1456170455.7,286048771.4,N
1456170475.6,286048068.7,N
1456170495.4,286048085.9,N
1456170515.3,286048074.3,N
1456170535.1,286048071.8,N
1456170536.0,286048071.8,N
1456170555.8,286045705.2,N
1456170575.7,286046466.5,N
1456170595.5,286045197.5,N
1456170615.4,286045731.0,N
1456170635.2,286045936.7,N
1456170655.0,286048039.3,N
1456170655.9,286048039.3,N
1456170675.8,286045934.2,N
1456170695.6,286045482.3,N
1456170715.4,286046120.9,N
1456170735.3,286045405.8,N
1456170755.1,286045404.4,N
1456170775.9,286045403.6,N
1456170795.7,286046815.2,N
1456170815.5,286046816.4,N
1456170835.4,286046174.9,N
1456170855.2,286046151.8,N
1456170875.1,286045397.0,N
1456170876.0,286045397.0,N
1456170895.8,286046490.6,N
1456170915.6,286046825.9,N
1456170935.5,286047016.3,N
1456170955.3,286046828.9,N
1456170975.2,286046833.1,N
1456170995.9,286046555.7,N
1456171015.7,286046835.8,N
1456171035.6,286046168.2,N
1456171055.4,286046835.4,N
1456171075.2,286046843.9,N
1456171095.1,286047231.2,N
1456171096.0,286047231.2,N
1456171115.8,286047232.9,N
1456171135.7,286047169.8,N
1456171155.5,286047237.7,N
1456171175.3,286047167.0,N
1456171195.2,286047205.5,N
